Alexandria, LA

8:59 PM CDT on April 25, 2018 (GMT -0500)
Alexandria International

Weather History for KAEX - February, 2009

Change the Weather History Date:

Wednesday, February 18, 2009

  Actual Average Record
Temperature  
Mean Temperature 71 °F 53 °F  
Max Temperature 82 °F 64 °F 83 °F (1907)
Min Temperature 60 °F 42 °F 16 °F (1900)
Degree Days  
Heating Degree Days 0 13  
Month to date heating degree days 178 259  
Since 1 July heating degree days 1388 1550  
Cooling Degree Days 7    
Growing Degree Days 22 (Base 50)    
Moisture  
Dew Point 59 °F    
Average Humidity 59    
Maximum Humidity 87    
Minimum Humidity 31    
Precipitation  
Precipitation 0.00 in 0.17 in 1.90 in (2012)
Month to date precipitation 1.61 2.83  
Year to date precipitation 2.67 8.05  
Snow  
Snow 0.00 in - T in (1910)
Month to date snowfall 0.0  
Since 1 July snowfall 0.0  
Snow Depth 0.00 in    
Sea Level Pressure  
Sea Level Pressure 29.83 in    
Wind  
Wind Speed 11 mph (SW)    
Max Wind Speed 18 mph    
Max Gust Speed 26 mph    
Visibility 10 miles    
Events      
T = Trace of Precipitation, MM = Missing Value Source: NWS Daily Summary

Daily Weather History Graph

Daily Weather History Graph

Search for Another Location

Airport or City:

Astronomy

Feb. 18, 2009 Rise Set
Actual Time 6:48 AM CST 6:00 PM CST
Civil Twilight 6:23 AM CST 6:24 PM CST
Nautical Twilight 5:55 AM CST 6:53 PM CST
Astronomical Twilight 5:27 AM CST 7:21 PM CST
Moon 2:24 AM CST (2/18) 12:19 PM CST (2/18)
Length of Visible Light 12h 00m
Length of Day
11h 11m
Waning Crescent, 33% of the Moon is Illuminated
Feb 18
Waning Crescent
Feb 24
New
Mar 4
First Quarter
Mar 10
Full
Mar 18
Last Quarter

Hourly Weather History & Observations

Time (CST) Temp. Heat Index Dew Point Humidity Pressure Visibility Wind Dir Wind Speed Gust Speed Precip Events Conditions
12:53 AM 68.0 °F - 62.1 °F 81% 29.87 in 10.0 mi South 15.0 mph 26.5 mph N/A   Overcast
1:53 AM 68.0 °F - 63.0 °F 84% 29.87 in 10.0 mi SSW 12.7 mph 20.7 mph N/A   Overcast
2:53 AM 68.0 °F - 63.0 °F 84% 29.86 in 10.0 mi SSW 10.4 mph - N/A   Overcast
3:53 AM 68.0 °F - 63.0 °F 84% 29.84 in 10.0 mi South 9.2 mph - N/A   Overcast
4:53 AM 68.0 °F - 64.0 °F 87% 29.83 in 10.0 mi South 11.5 mph - N/A   Overcast
5:44 AM 68.0 °F - 64.4 °F 88% 29.84 in 9.0 mi SW 10.4 mph 21.9 mph N/A   Overcast
6:09 AM 68.0 °F - 64.4 °F 88% 29.82 in 8.0 mi SSW 15.0 mph 23.0 mph N/A   Mostly Cloudy
6:53 AM 68.0 °F - 64.9 °F 90% 29.85 in 9.0 mi SW 9.2 mph - N/A   Overcast
7:25 AM 69.8 °F - 64.4 °F 83% 29.83 in 8.0 mi SSW 13.8 mph 23.0 mph N/A   Mostly Cloudy
7:53 AM 69.1 °F - 64.9 °F 87% 29.84 in 9.0 mi SSW 11.5 mph - N/A   Overcast
8:03 AM 69.8 °F - 66.2 °F 88% 29.82 in 9.0 mi SSW 13.8 mph 20.7 mph N/A   Overcast
8:53 AM 71.1 °F - 66.0 °F 84% 29.84 in 9.0 mi SW 12.7 mph - N/A   Overcast
9:53 AM 73.0 °F - 66.9 °F 81% 29.84 in 10.0 mi SW 10.4 mph - N/A   Overcast
10:53 AM 75.0 °F - 66.9 °F 76% 29.83 in 10.0 mi SSW 11.5 mph - N/A   Overcast
11:40 AM 75.2 °F - 66.2 °F 73% 29.81 in 10.0 mi SW 13.8 mph 21.9 mph N/A   Mostly Cloudy
11:53 AM 75.9 °F - 66.9 °F 74% 29.81 in 10.0 mi SW 13.8 mph 20.7 mph N/A   Scattered Clouds
12:53 PM 79.0 °F - 66.0 °F 64% 29.78 in 10.0 mi SW 15.0 mph 24.2 mph N/A   Partly Cloudy
1:53 PM 80.1 °F 81.9 °F 64.9 °F 60% 29.75 in 10.0 mi SW 10.4 mph - N/A   Mostly Cloudy
2:53 PM 82.0 °F 81.6 °F 55.9 °F 41% 29.74 in 10.0 mi West 10.4 mph 16.1 mph N/A   Scattered Clouds
3:53 PM 81.0 °F - 52.0 °F 36% 29.73 in 10.0 mi West 10.4 mph 17.3 mph N/A   Partly Cloudy
4:53 PM 80.1 °F 80.2 °F 55.9 °F 43% 29.75 in 10.0 mi WSW 10.4 mph - N/A   Mostly Cloudy
5:53 PM 73.9 °F - 66.0 °F 76% 29.77 in 10.0 mi SW 8.1 mph - N/A   Clear
6:53 PM 71.1 °F - 66.0 °F 84% 29.80 in 10.0 mi Calm Calm - N/A   Clear
7:53 PM 71.1 °F - 54.0 °F 55% 29.82 in 10.0 mi WNW 5.8 mph - N/A   Clear
8:53 PM 66.0 °F - 37.9 °F 36% 29.85 in 10.0 mi NW 10.4 mph - N/A   Clear
9:53 PM 64.0 °F - 34.0 °F 33% 29.89 in 10.0 mi NW 12.7 mph - N/A   Clear
10:53 PM 62.1 °F - 33.1 °F 34% 29.93 in 10.0 mi NW 11.5 mph - N/A   Clear
11:53 PM 60.1 °F - 33.1 °F 36% 29.96 in 10.0 mi NNW 10.4 mph - N/A   Clear